Covington, KY

5:06 AM EDT on July 28, 2017 (GMT -0400)
Cincinnati-Northern KY International

Weather History for KCVG - October, 2013

Change the Weather History Date:

Thursday, October 17, 2013

  Actual Average Record
Temperature  
Mean Temperature 49 °F 55 °F  
Max Temperature 55 °F 66 °F 86 °F (1950)
Min Temperature 43 °F 45 °F 23 °F (1977)
Degree Days  
Heating Degree Days 16 10  
Month to date heating degree days 64 133  
Since 1 July heating degree days 94 191  
Cooling Degree Days 0 0  
Month to date cooling degree days 30 16  
Year to date cooling degree days 1150 1121  
Moisture  
Dew Point 46 °F    
Average Humidity 86    
Maximum Humidity 100    
Minimum Humidity 71    
Precipitation  
Precipitation 0.07 in 0.11 in 2.06 in (1975)
Month to date precipitation 4.13 1.80  
Year to date precipitation 40.83 34.22  
Snow  
Snow 0.00 in 0.00 in 0.00 in ()
Month to date snowfall 0.0 0.1  
Since 1 July snowfall 0.0 0.1  
Since 1 September snowfall 0.0 0.1  
Snow Depth 0.00 in    
Sea Level Pressure  
Sea Level Pressure 29.93 in    
Wind  
Wind Speed 6 mph (West)    
Max Wind Speed 17 mph    
Max Gust Speed 21 mph    
Visibility 9 miles    
Events Rain    
T = Trace of Precipitation, MM = Missing Value Source: NWS Daily Summary

Daily Weather History Graph

Daily Weather History Graph

Search for Another Location

Airport or City:

Trip Planner

Search our weather history database for the weather conditions in past years. The results will help you decide how hot, cold, wet, or windy it might be!

Date:

Astronomy

Oct. 17, 2013 Rise Set
Actual Time 7:50 AM EDT 6:56 PM EDT
Civil Twilight 7:23 AM EDT 7:23 PM EDT
Nautical Twilight 6:52 AM EDT 7:54 PM EDT
Astronomical Twilight 6:21 AM EDT 8:25 PM EDT
Moon 6:10 PM EDT (10/17) 6:22 AM EDT (10/17)
Length of Visible Light 12h 00m
Length of Day
11h 06m
Waxing Gibbous, 98% of the Moon is Illuminated
Oct 17
Waxing Gibbous
Oct 18
Full
Oct 26
Last Quarter
Nov 3
New
Nov 10
First Quarter

Hourly Weather History & Observations

Time (EDT) Temp. Windchill Dew Point Humidity Pressure Visibility Wind Dir Wind Speed Gust Speed Precip Events Conditions
12:52 AM 50.0 °F - 46.0 °F 86% 29.95 in 10.0 mi NNW 9.2 mph - N/A   Clear
1:52 AM 48.0 °F - 45.0 °F 89% 29.95 in 10.0 mi North 6.9 mph - N/A   Clear
2:52 AM 46.9 °F - 44.1 °F 90% 29.95 in 10.0 mi NNW 3.5 mph - N/A   Clear
3:52 AM 46.9 °F - 44.1 °F 90% 29.93 in 10.0 mi NNE 3.5 mph - N/A   Clear
4:52 AM 43.0 °F - 42.1 °F 97% 29.94 in 10.0 mi Calm Calm - N/A   Partly Cloudy
5:52 AM 48.0 °F - 44.1 °F 86% 29.93 in 10.0 mi North 4.6 mph - N/A   Partly Cloudy
6:52 AM 46.0 °F 43.9 °F 43.0 °F 89% 29.91 in 10.0 mi NNE 4.6 mph - N/A   Partly Cloudy
7:52 AM 45.0 °F 41.8 °F 44.1 °F 97% 29.93 in 10.0 mi West 5.8 mph - N/A   Mostly Cloudy
8:52 AM 46.9 °F - 45.0 °F 93% 29.91 in 10.0 mi Calm Calm - N/A   Overcast
9:52 AM 48.9 °F - 46.9 °F 93% 29.93 in 9.0 mi NW 4.6 mph - N/A   Overcast
10:52 AM 48.9 °F - 46.0 °F 90% 29.95 in 7.0 mi West 10.4 mph - N/A   Overcast
11:19 AM 48.2 °F - 46.4 °F 93% 29.92 in 2.5 mi East 6.9 mph - 0.00 in Rain Rain
11:33 AM 48.2 °F - 46.4 °F 93% 29.93 in 4.0 mi Calm Calm - 0.05 in Rain Light Rain
11:52 AM 48.9 °F - 46.9 °F 93% 29.94 in 5.0 mi West 5.8 mph - 0.06 in Rain Light Rain
12:02 PM 48.2 °F - 46.4 °F 93% 29.94 in 5.0 mi Variable 3.5 mph - 0.01 in Rain Light Rain
12:52 PM 50.0 °F - 48.0 °F 93% 29.92 in 8.0 mi SSW 5.8 mph - 0.01 in   Overcast
1:42 PM 53.6 °F - 48.2 °F 82% 29.90 in 10.0 mi WSW 5.8 mph - 0.00 in   Mostly Cloudy
1:52 PM 53.1 °F - 48.9 °F 86% 29.89 in 10.0 mi West 8.1 mph - 0.00 in   Mostly Cloudy
2:16 PM 53.6 °F - 48.2 °F 82% 29.90 in 10.0 mi West 10.4 mph - N/A   Mostly Cloudy
2:52 PM 54.0 °F - 48.0 °F 80% 29.88 in 10.0 mi West 10.4 mph - N/A   Overcast
3:52 PM 54.0 °F - 46.0 °F 75% 29.90 in 10.0 mi West 16.1 mph - N/A   Overcast
4:52 PM 54.0 °F - 46.0 °F 75% 29.91 in 10.0 mi West 11.5 mph - N/A   Overcast
5:02 PM 53.6 °F - 46.4 °F 77% 29.91 in 10.0 mi West 11.5 mph - N/A   Overcast
5:52 PM 54.0 °F - 45.0 °F 72% 29.91 in 10.0 mi West 10.4 mph - N/A   Overcast
6:52 PM 53.1 °F - 45.0 °F 74% 29.92 in 10.0 mi WSW 4.6 mph - N/A   Mostly Cloudy
7:52 PM 51.1 °F - 46.0 °F 83% 29.95 in 10.0 mi SW 4.6 mph - N/A   Mostly Cloudy
8:52 PM 50.0 °F - 46.0 °F 86% 29.97 in 10.0 mi SW 3.5 mph - N/A   Scattered Clouds
9:52 PM 48.9 °F - 45.0 °F 86% 29.99 in 10.0 mi SW 4.6 mph - N/A   Clear
10:52 PM 46.9 °F - 44.1 °F 90% 30.00 in 10.0 mi SW 4.6 mph - N/A   Clear
11:52 PM 45.0 °F 42.6 °F 43.0 °F 93% 29.99 in 10.0 mi SSW 4.6 mph - N/A   Clear